TimeCST,TemperatureF,Dew PointF,Humidity,Sea Level PressureIn,VisibilityMPH,Wind Direction,Wind SpeedMPH,Gust SpeedMPH,PrecipitationIn,Events,Conditions,WindDirDegrees,DateUTC
12:15 AM,31.5,22.5,69,29.87,10.0,WNW,3.5,-,N/A,,Clear,290,2014-02-22 06:15:00
12:35 AM,31.1,19.4,62,29.87,10.0,WNW,5.8,-,N/A,,Scattered Clouds,290,2014-02-22 06:35:00
12:55 AM,30.7,18.0,59,29.88,10.0,West,6.9,-,N/A,,Clear,280,2014-02-22 06:55:00
1:15 AM,29.3,18.9,65,29.89,10.0,West,4.6,-,N/A,,Clear,270,2014-02-22 07:15:00
1:35 AM,29.1,19.6,68,29.89,10.0,WSW,4.6,-,N/A,,Clear,240,2014-02-22 07:35:00
1:55 AM,28.2,20.5,73,29.89,10.0,SW,4.6,-,N/A,,Clear,230,2014-02-22 07:55:00
2:15 AM,27.9,20.7,74,29.89,10.0,SW,4.6,-,N/A,,Clear,230,2014-02-22 08:15:00
2:35 AM,27.3,20.3,75,29.90,10.0,SW,5.8,-,N/A,,Clear,220,2014-02-22 08:35:00
2:55 AM,27.5,20.5,75,29.90,10.0,SW,6.9,-,N/A,,Clear,220,2014-02-22 08:55:00
3:15 AM,28.6,20.3,71,29.91,10.0,SW,8.1,-,N/A,,Clear,230,2014-02-22 09:15:00
3:35 AM,27.5,21.2,77,29.92,10.0,SW,8.1,-,N/A,,Clear,220,2014-02-22 09:35:00
3:55 AM,27.7,21.9,79,29.92,10.0,WSW,8.1,-,N/A,,Clear,240,2014-02-22 09:55:00
4:15 AM,28.4,22.5,78,29.94,10.0,WSW,10.4,-,N/A,,Clear,240,2014-02-22 10:15:00
4:35 AM,28.9,22.1,76,29.94,10.0,WSW,10.4,-,N/A,,Clear,250,2014-02-22 10:35:00
4:55 AM,29.1,22.3,76,29.95,10.0,WSW,10.4,-,N/A,,Clear,250,2014-02-22 10:55:00
5:15 AM,30.2,21.6,70,29.95,10.0,West,13.8,-,N/A,,Clear,260,2014-02-22 11:15:00
5:35 AM,29.7,21.9,73,29.96,10.0,West,10.4,-,N/A,,Clear,260,2014-02-22 11:35:00
5:55 AM,29.3,22.1,75,29.97,10.0,West,8.1,-,N/A,,Clear,260,2014-02-22 11:55:00
6:15 AM,28.0,22.3,79,29.98,10.0,WSW,6.9,-,N/A,,Clear,250,2014-02-22 12:15:00
6:35 AM,27.3,22.1,81,29.97,10.0,Calm,Calm,-,N/A,,Clear,0,2014-02-22 12:35:00
6:55 AM,25.9,21.4,83,29.98,10.0,SSW,3.5,-,N/A,,Clear,210,2014-02-22 12:55:00
7:15 AM,25.7,22.1,86,29.99,10.0,WSW,3.5,-,N/A,,Clear,250,2014-02-22 13:15:00
7:35 AM,28.0,23.0,81,30.01,10.0,West,4.6,-,N/A,,Mostly Cloudy,260,2014-02-22 13:35:00
7:55 AM,28.0,23.0,81,30.03,10.0,WSW,5.8,-,N/A,,Mostly Cloudy,240,2014-02-22 13:55:00
8:15 AM,29.1,23.5,80,30.03,10.0,SW,5.8,-,N/A,,Scattered Clouds,230,2014-02-22 14:15:00
8:35 AM,29.7,23.9,79,30.04,10.0,West,6.9,-,N/A,,Scattered Clouds,260,2014-02-22 14:35:00
8:55 AM,30.4,23.4,75,30.05,10.0,West,8.1,-,N/A,,Mostly Cloudy,270,2014-02-22 14:55:00
9:15 AM,31.6,22.3,68,30.05,10.0,WSW,8.1,-,N/A,,Overcast,250,2014-02-22 15:15:00
9:35 AM,30.9,22.1,70,30.05,10.0,West,9.2,-,N/A,,Scattered Clouds,270,2014-02-22 15:35:00
9:55 AM,31.5,22.6,70,30.05,10.0,West,6.9,-,N/A,,Scattered Clouds,260,2014-02-22 15:55:00
10:15 AM,32.0,22.6,68,30.05,10.0,West,8.1,-,N/A,,Scattered Clouds,270,2014-02-22 16:15:00
10:35 AM,32.4,23.4,69,30.04,10.0,WSW,5.8,-,N/A,,Scattered Clouds,250,2014-02-22 16:35:00
10:55 AM,32.4,24.3,72,30.04,10.0,WSW,5.8,-,N/A,,Scattered Clouds,250,2014-02-22 16:55:00
11:15 AM,33.1,25.2,73,30.03,10.0,West,5.8,-,N/A,,Scattered Clouds,280,2014-02-22 17:15:00
11:35 AM,32.9,24.6,72,30.05,10.0,WSW,8.1,-,N/A,,Overcast,240,2014-02-22 17:35:00
11:55 AM,33.4,25.9,74,30.05,10.0,SW,9.2,-,N/A,,Overcast,220,2014-02-22 17:55:00
12:15 PM,34.2,24.8,69,30.04,10.0,WSW,6.9,-,N/A,,Overcast,250,2014-02-22 18:15:00
12:35 PM,34.5,24.1,66,30.03,10.0,WSW,6.9,-,N/A,,Mostly Cloudy,250,2014-02-22 18:35:00
12:55 PM,34.2,23.9,66,30.02,10.0,West,6.9,-,N/A,,Overcast,270,2014-02-22 18:55:00
1:15 PM,33.8,23.4,66,30.02,10.0,West,8.1,-,N/A,,Overcast,270,2014-02-22 19:15:00
1:35 PM,33.8,22.1,62,30.02,10.0,West,5.8,-,N/A,,Overcast,260,2014-02-22 19:35:00
1:55 PM,33.8,23.4,66,30.02,10.0,West,5.8,-,N/A,,Overcast,270,2014-02-22 19:55:00
2:15 PM,34.0,23.4,65,30.02,10.0,WSW,5.8,-,N/A,,Overcast,250,2014-02-22 20:15:00
2:35 PM,34.0,24.3,68,30.02,10.0,WSW,5.8,-,N/A,,Overcast,250,2014-02-22 20:35:00
2:55 PM,34.0,23.7,66,30.01,10.0,WSW,5.8,-,N/A,,Overcast,240,2014-02-22 20:55:00
3:15 PM,34.0,24.3,68,30.01,10.0,WSW,5.8,-,N/A,,Overcast,250,2014-02-22 21:15:00
3:35 PM,33.8,24.8,70,30.01,10.0,SSW,5.8,-,N/A,,Overcast,210,2014-02-22 21:35:00
3:55 PM,33.1,26.4,77,30.00,10.0,SSW,5.8,-,N/A,,Overcast,210,2014-02-22 21:55:00
4:15 PM,32.0,27.3,83,30.00,10.0,SSW,5.8,-,N/A,,Overcast,210,2014-02-22 22:15:00
4:35 PM,32.0,27.5,83,30.00,10.0,SSW,4.6,-,N/A,,Overcast,200,2014-02-22 22:35:00
4:55 PM,32.0,27.5,83,30.01,10.0,SW,4.6,-,N/A,,Overcast,220,2014-02-22 22:55:00
5:15 PM,32.0,28.0,85,30.01,10.0,SW,3.5,-,N/A,,Overcast,220,2014-02-22 23:15:00
5:35 PM,32.0,28.2,86,30.02,10.0,SW,5.8,-,N/A,,Overcast,230,2014-02-22 23:35:00
5:55 PM,31.8,28.9,89,30.03,10.0,SW,5.8,-,N/A,,Overcast,220,2014-02-22 23:55:00
6:15 PM,31.6,29.3,91,30.03,10.0,SW,5.8,-,N/A,,Overcast,230,2014-02-23 00:15:00
6:35 PM,31.5,29.3,92,30.05,10.0,SW,8.1,-,N/A,,Overcast,230,2014-02-23 00:35:00
6:55 PM,31.5,29.3,92,30.05,10.0,SW,8.1,-,N/A,,Mostly Cloudy,230,2014-02-23 00:55:00
7:15 PM,31.5,29.3,92,30.05,10.0,WSW,6.9,-,N/A,,Overcast,250,2014-02-23 01:15:00
7:35 PM,31.5,29.3,92,30.05,10.0,WSW,6.9,-,N/A,,Overcast,250,2014-02-23 01:35:00
7:55 PM,31.6,28.9,90,30.05,10.0,West,8.1,-,N/A,,Overcast,270,2014-02-23 01:55:00
8:15 PM,31.6,29.3,91,30.05,10.0,West,6.9,-,N/A,,Overcast,280,2014-02-23 02:15:00
8:35 PM,31.5,28.6,89,30.05,10.0,WNW,4.6,-,N/A,,Overcast,300,2014-02-23 02:35:00
8:55 PM,31.5,22.5,69,30.05,10.0,NW,6.9,-,N/A,,Overcast,310,2014-02-23 02:55:00
9:15 PM,31.1,19.9,63,30.04,10.0,NW,8.1,-,N/A,,Overcast,310,2014-02-23 03:15:00
9:35 PM,30.7,17.6,58,30.04,10.0,NW,8.1,-,N/A,,Mostly Cloudy,310,2014-02-23 03:35:00
9:55 PM,30.2,17.6,60,30.06,10.0,WNW,6.9,-,N/A,,Scattered Clouds,290,2014-02-23 03:55:00
10:15 PM,30.0,17.6,60,30.06,10.0,West,4.6,-,N/A,,Scattered Clouds,260,2014-02-23 04:15:00
10:35 PM,29.7,18.3,63,30.06,10.0,West,5.8,-,N/A,,Scattered Clouds,280,2014-02-23 04:35:00
10:55 PM,29.3,18.1,63,30.06,10.0,West,4.6,-,N/A,,Clear,270,2014-02-23 04:55:00
11:15 PM,29.1,19.4,67,30.06,10.0,Calm,Calm,-,N/A,,Scattered Clouds,0,2014-02-23 05:15:00
11:35 PM,28.9,20.1,70,30.07,10.0,West,3.5,-,N/A,,Scattered Clouds,280,2014-02-23 05:35:00
11:55 PM,28.0,18.9,68,30.07,10.0,NW,4.6,-,N/A,,Clear,320,2014-02-23 05:55:00